Location: Clanezzo
(45.7500°N, 9.6000°E)
Time: 17:13:35
(UTC+00:00)

ESTCUBE 1 - Pass Details

Date: 05 July 2022
Orbit: 645 x 657 km, 97.9° (Epoch: 19 August)

Event Time Altitude Azimuth Distance (km) Brightness Sun altitude
Exits shadow 20:08:21 - 109° (ESE) 2,242 ? -8.1°
Reaches altitude 10° 20:09:02 10° 103° (ESE) 2,049 ? -8.2°
Maximum altitude 20:11:58 18° 62° (ENE) 1,613 ? -8.6°
Drops below altitude 10° 20:14:55 10° 21° (NNE) 2,063 ? -8.9°
Sets 20:17:45 0° 2° (N) 2,981 ? -9.3°
